Location: Unspecified
(0.0000°N, 0.0000°E)
Time: 23:19:56
(UTC+02:00)

OTV 5 (USA 277) - Visible Passes

Search period start: 18 October 2018 00:00
Search period end: 28 October 2018 00:00
Orbit: 387 x 394 km, 54.5° (Epoch: 08 September)

Date Brightness Start Highest point End Pass type
(mag) Time Alt. Az. Time Alt. Az. Time Alt. Az.
18 Oct ? 20:30:04 10° SSW 20:33:14 81° ESE 20:35:55 14° NE visible
20 Oct ? 07:07:32 10° NE 07:08:42 12° ENE 07:09:52 10° E visible
20 Oct ? 20:13:23 10° WSW 20:16:14 31° WNW 20:19:06 10° N visible
22 Oct ? 06:48:53 10° N 06:51:43 30° ENE 06:54:33 10° ESE visible
24 Oct ? 06:33:54 47° NW 06:34:42 83° WSW 06:37:53 10° SSE visible
25 Oct ? 05:40:33 13° ESE 05:40:33 13° ESE 05:41:01 10° ESE visible
26 Oct ? 06:19:32 16° S 06:19:32 16° S 06:20:25 10° S visible
